Location: ???????
(55.3754°N, 39.3545°E)
Time: 01:04:12
(UTC+00:00)

SL-08 R/B - Pass Details

Date: 14 April 2026
Orbit: 944 x 1006 km, 82.9° (Epoch: 20 May)

Event Time Altitude Azimuth Distance (km) Brightness Sun altitude
Exits shadow 21:29:42 59° 173° (S) 1,099 4.4 -24.9°
Maximum altitude 21:30:57 81° 99° (E) 975 4.4 -24.9°
Drops below altitude 10° 21:37:10 10° 13° (NNE) 2,721 7.9 -24.9°
Sets 21:39:42 0° 12° (NNE) 3,681 8.9 -24.9°
